Presure
339 354 346 355 388 269 221 212 205 172 210 228 214 197 209 191 196 174 216 199 204 190 172 187 133 170 122 154 131 109 116 135 141 131 142 107 140 114 97 131 125 153 141 115 117
342 338 340 355 385 331 259 221 208 179 171 170 210 211 193 206 191 194 206 209 205 205 234 164 162 166 162 177 156 185 115 153 130 125 143 153 90 143 105 145 97 143 89 96 94
343 340 339 341 365 411 297 231 216 190 187 207 199 207 204 191 187 203 196 208 210 207 212 201 198 171 180 155 145 162 176 129 125 135 139 162 150 87 102 150 98 89 115 84 139
365 344 342 330 354 385 368 276 230 193 186 181 175 195 217 202 192 197 186 193 201 210 194 213 224 228 232 176 194 195 127 116 130 123 160 165 133 138 102 92 132 102 98 141 137
318 349 347 351 350 368 354 342 266 230 211 225 186 191 206 212 199 187 195 191 201 198 202 194 198 200 199 194 217 187 198 115 122 182 181 157 156 167 165 136 98 99 103 109 135
340 330 359 353 336 357 340 325 327 260 240 211 204 181 185 217 204 199 186 191 197 201 194 195 207 196 200 198 209 225 223 156 126 210 126 201 233 173 145 136 177 195 103 108 108
352 344 340 372 370 349 366 321 320 324 250 228 219 207 190 220 208 199 197 200 187 190 201 199 188 208 204 185 208 205 215 219 220 219 204 134 148 137 140 129 157 146 156 145 133
369 360 354 349 360 350 364 338 313 330 207 227 201 206 202 208 216 205 195 191 199 194 195 197 201 194 199 200 207 202 199 197 200 201 206 136 121 223 206 85 220 170 200 137 243
400 385 366 361 353 369 345 366 337 311 273 227 203 219 200 204 194 216 204 200 192 191 196 190 196 203 199 195 179 199 196 206 205 214 212 168 203 212 167 176 183 113 84 144 185
406 372 348 341 342 360 365 366 352 301 293 249 228 223 201 212 223 211 214 198 202 194 190 190 199 196 198 177 203 199 212 213 200 212 219 204 216 209 212 132 160 196 208 104 105
355 339 342 347 328 351 394 281 336 310 300 258 249 248 236 204 234 216 196 211 210 203 197 201 192 194 192 195 189 199 196 196 206 204 190 197 182 194 213 216 220 210 212 229 72
355 349 338 325 319 340 362 332 340 330 299 292 259 247 242 226 207 215 213 184 212 209 207 199 202 195 181 175 178 195 196 200 200 200 208 199 189 193 193 166 133 216 150 150 209
365 344 331 326 330 338 345 306 307 310 298 260 258 246 234 238 211 210 238 199 192 210 212 215 202 194 189 195 189 197 196 197 204 205 177 203 204 217 185 202 146 136 206 136 207
208 356 336 328 325 327 331 323 323 280 323 312 299 281 227 235 236 226 209 242 224 225 212 216 216 208 203 200 203 205 187 193 203 195 192 210 213 201 205 211 199 223 223 197 205
307 313 337 330 327 325 324 324 332 320 309 314 299 291 268 253 243 235 251 217 211 225 226 220 218 219 223 218 224 211 212 198 211 207 203 212 213 214 217 225 186 233 241 248 142
228 311 185 143 265 314 312 312 309 313 289 312 312 288 319 280 269 268 241 265 219 259 230 227 226 219 225 229 224 226 230 232 231 230 231 233 234 239 228 233 244 243 240 261 287
246 227 239 281 359 301 322 301 296 303 299 291 298 311 300 273 282 271 258 242 239 237 242 259 246 225 219 218 219 223 225 226 227 229 240 238 246 250 237 232 257 284 297 310 332
154 248 241 329 295 290 333 353 310 295 284 299 289 288 302 300 292 271 269 283 276 263 258 247 224 245 213 201 221 221 212 218 214 218 273 257 255 247 265 262 388 377 343 308 310
153 145 201 256 268 332 149 161 362 357 336 310 296 293 290 286 287 289 275 264 255 263 264 261 261 262 258 245 238 249 258 282 268 266 272 302 422 386 335 326 318 310 296 286 276
208 144 145 236 233 234 323 324 197 279 287 373 363 349 342 340 340 319 312 295 289 305 302 287 284 287 283 282 287 301 302 328 343 357 342 321 311 303 227 292 290 275 278 283 279
194 218 140 208 257 247 233 314 312 256 130 273 278 286 336 341 406 392 398 390 389 387 386 386 397 377 371 360 350 338 318 308 304 308 298 285 286 274 271 278 274 204 263 257 268
180 210 203 170 152 161 161 244 318 319 315 310 252 265 272 273 280 283 290 294 293 294 294 298 297 295 296 288 286 278 274 278 274 269 271 267 272 266 264 264 256 264 258 258 264
201 210 208 189 169 156 142 150 224 250 288 297 308 321 317 270 269 257 259 262 262 279 279 279 269 281 265 292 300 278 272 263 265 264 251 268 262 259 255 256 253 254 243 244 255
177 167 185 191 212 218 138 141 141 175 215 282 280 279 280 208 284 283 291 298 290 288 286 278 274 277 275 266 264 262 259 245 256 243 250 244 242 237 246 243 242 241 241 234 239
202 201 150 195 205 216 205 212 144 146 223 225 244 268 282 280 275 288 283 266 266 259 261 265 253 252 251 257 246 251 238 240 246 244 239 243 241 235 238 236 236 234 240 244 250
186 203 200 180 207 211 203 228 226 138 154 148 164 202 271 264 257 275 251 274 255 254 247 242 245 245 226 249 252 247 246 239 235 241 234 227 228 237 233 232 241 229 235 224 224
192 189 198 184 204 168 208 186 195 232 207 246 141 147 210 200 210 241 262 255 249 245 246 231 246 239 239 230 247 175 168 235 208 234 237 242 238 239 238 231 227 229 236 235 235
Wind_Speed
20 14 25 30 25 104 102 95 87 68 86 95 94 88 88 86 87 80 78 89 86 86 90 86 73 82 64 73 65 52 55 59 60 58 59 30 49 38 38 40 40 50 45 38 32
20 24 27 23 20 81 104 100 94 79 66 69 87 92 86 87 86 89 83 81 82 81 65 85 83 83 78 86 74 82 59 68 62 60 59 62 35 52 35 46 25 46 26 35 27
19 25 25 25 17 21 101 110 103 80 83 85 83 89 93 89 86 84 85 80 78 77 76 81 80 89 89 74 71 73 81 65 61 59 58 68 58 23 47 56 39 19 39 17 40
16 23 26 29 25 22 58 113 108 72 74 83 72 78 96 93 91 86 86 83 80 73 84 68 62 64 69 85 84 86 71 60 64 58 66 70 59 58 46 41 45 43 37 51 47
23 13 19 19 25 29 55 61 115 108 87 100 77 76 89 96 93 88 87 83 79 80 75 80 77 77 79 79 72 82 84 61 64 76 78 65 68 70 66 59 44 45 43 45 52
17 14 15 24 34 34 59 74 80 111 103 86 85 75 69 99 94 92 86 83 82 79 82 74 74 80 79 78 73 68 66 74 70 75 67 66 65 64 61 63 69 73 51 50 48
16 14 13 11 18 40 46 69 69 74 104 100 94 85 80 101 95 92 91 89 84 82 79 80 82 76 77 72 71 72 67 65 64 64 65 68 70 66 64 65 66 67 67 64 62
19 15 11 13 15 38 46 64 67 72 77 94 78 87 86 81 95 94 90 86 87 86 83 81 77 79 76 76 73 75 75 76 76 77 73 71 71 69 67 31 67 71 70 66 73
7 13 12 13 13 21 37 51 69 67 96 96 82 92 61 85 76 95 92 92 89 85 86 81 82 81 80 75 73 73 71 73 73 73 74 71 69 67 72 59 71 49 30 62 71
18 27 21 16 15 22 36 44 54 70 86 104 97 86 76 82 98 87 94 86 93 91 84 80 84 79 77 70 74 71 73 74 71 74 76 71 70 71 73 71 72 71 71 41 43
36 28 21 16 21 21 34 49 59 73 76 101 101 90 93 74 98 92 75 93 94 93 91 92 79 79 74 75 68 74 73 71 73 75 68 67 61 68 71 73 75 71 68 72 14
29 27 29 25 20 21 35 47 50 62 73 81 93 80 83 87 83 88 85 55 92 93 93 91 91 81 63 58 57 73 74 78 76 76 75 72 63 69 65 64 73 73 70 72 74
27 31 26 23 22 24 36 48 45 60 67 64 79 75 74 77 72 83 92 64 61 89 92 95 91 83 73 80 69 81 77 76 80 80 60 77 75 85 67 71 73 71 78 71 81
25 30 23 25 25 30 39 44 45 42 50 58 62 71 60 69 73 81 79 92 89 91 88 92 93 93 88 87 87 89 65 68 78 69 64 80 82 78 78 84 77 87 86 78 81
80 57 35 19 21 22 25 32 32 41 47 47 57 57 65 68 68 73 74 80 74 91 90 90 90 93 96 94 94 92 91 73 88 84 77 85 85 90 93 94 78 92 95 97 65
90 71 40 31 20 12 11 17 28 29 38 28 33 48 49 58 62 65 69 71 75 85 90 90 92 84 89 91 86 86 85 88 91 94 95 96 91 90 87 88 87 90 93 85 91
100 89 46 61 24 17 13 6 13 22 27 32 34 32 47 48 53 58 61 64 68 72 76 83 90 87 80 78 79 84 85 84 87 78 88 84 88 97 86 79 87 89 84 83 49
43 98 87 62 59 56 19 15 13 11 14 23 29 31 32 40 47 52 52 57 63 67 70 72 71 77 68 57 76 77 68 68 61 64 81 88 78 78 80 80 30 18 17 35 14
30 27 66 92 83 59 28 33 17 17 19 20 18 24 30 34 39 43 49 54 57 58 62 65 66 69 72 72 70 74 72 70 75 78 78 70 14 13 17 16 14 14 17 18 29
78 24 26 85 80 80 61 56 32 44 45 7 10 12 16 17 21 27 30 39 46 43 50 57 60 61 62 65 64 64 63 46 37 16 15 17 14 15 12 17 21 19 19 8 4
64 86 20 71 85 82 78 57 53 39 19 35 36 36 20 14 19 18 21 17 17 18 15 11 11 9 11 12 14 16 18 18 16 19 20 19 23 20 14 19 16 13 11 8 4
50 77 69 36 26 32 40 77 56 52 47 44 28 32 33 32 32 30 29 27 25 22 20 19 20 21 23 24 22 21 18 18 17 19 22 22 24 21 22 18 17 17 14 10 14
67 77 72 49 38 24 20 31 65 65 59 62 55 46 42 29 29 27 26 25 23 23 22 21 20 22 18 23 30 27 26 26 25 24 7 18 24 18 16 16 18 14 8 7 6
49 36 54 53 79 80 11 14 20 39 61 53 52 51 49 28 45 41 40 41 44 44 44 41 35 33 34 31 29 27 27 15 19 17 19 17 17 16 14 14 11 9 7 6 5
70 66 20 58 66 82 65 61 15 19 53 61 56 50 44 43 43 36 43 41 39 36 37 39 35 30 26 25 22 24 17 18 22 19 17 17 14 12 10 10 8 8 5 6 8
58 71 63 42 67 72 60 83 74 10 19 19 28 48 42 42 41 36 38 34 35 35 32 31 31 30 21 24 22 24 21 20 16 14 11 9 9 8 11 10 5 7 8 3 2
65 58 64 49 66 28 69 39 53 67 51 61 15 17 43 42 45 41 35 33 31 27 27 23 28 24 24 19 22 11 8 15 10 11 8 8 6 4 5 6 5 3 4 4 4
Wind_Direction
219 209 223 228 239 214 222 225 226 231 223 220 221 225 224 228 231 234 226 236 235 235 237 235 226 236 233 231 232 230 225 222 229 223 233 229 233 236 226 228 228 243 235 222 225
215 216 225 234 239 212 212 222 226 223 232 233 223 221 227 224 229 230 228 228 233 236 230 234 236 235 232 241 236 242 227 233 223 224 231 237 238 235 231 235 235 237 234 229 221
225 231 229 224 224 199 212 216 222 225 225 221 222 221 221 225 228 227 229 228 229 232 236 235 236 239 239 231 227 237 242 224 230 225 229 245 232 223 230 241 233 223 234 222 230
238 236 236 222 210 196 204 214 216 216 220 225 229 223 219 221 225 226 230 229 231 230 236 235 234 233 233 239 241 243 224 229 230 229 237 241 225 229 238 240 238 237 231 236 240
321 266 246 227 206 201 198 198 212 214 215 216 224 225 222 219 224 228 227 231 230 230 231 234 236 238 240 238 238 240 242 229 230 245 247 242 239 244 240 242 245 245 239 229 229
308 287 246 231 205 199 197 197 205 212 212 219 218 228 224 219 221 225 233 230 229 229 231 234 233 236 238 240 240 237 239 235 229 248 229 242 249 237 229 230 247 252 243 236 231
286 267 251 220 197 199 200 200 206 205 211 214 215 216 225 219 220 223 226 229 236 235 231 233 237 235 238 237 240 242 242 242 242 244 243 230 236 230 228 227 235 236 239 233 228
264 244 222 217 200 197 199 197 198 202 210 213 222 217 222 223 220 222 227 231 232 238 239 235 236 238 239 240 240 242 244 246 247 248 248 232 233 250 248 224 254 240 248 228 256
218 149 150 169 184 182 191 190 195 199 206 215 219 216 215 222 225 222 225 228 233 236 236 240 241 240 240 239 234 242 244 244 247 249 250 242 253 254 241 252 247 231 226 239 248
105 104 103 131 148 166 174 173 189 196 205 211 218 216 219 219 223 226 226 231 230 234 239 240 240 243 245 244 248 250 247 246 251 249 249 250 255 255 256 235 241 253 255 236 238
87 92 105 113 114 131 157 188 186 196 201 212 217 214 215 216 222 226 230 230 230 233 236 237 244 244 246 248 249 253 254 255 254 255 254 254 247 256 259 257 259 260 263 266 249
79 96 98 102 101 120 140 163 181 195 200 209 216 214 217 218 221 226 229 231 232 233 235 238 240 246 240 240 242 252 254 255 256 257 257 257 253 256 253 243 236 264 238 236 259
78 84 90 88 102 119 143 171 186 193 204 217 215 215 214 218 224 225 229 228 231 235 237 237 240 243 247 248 251 253 254 256 257 259 239 260 260 263 251 261 240 238 260 237 261
42 67 77 84 98 123 141 159 179 198 195 209 210 218 219 219 223 223 227 231 236 236 238 239 240 242 246 248 250 250 256 259 260 260 259 262 265 264 268 268 262 269 266 253 259
42 39 52 65 100 113 140 161 167 184 198 204 213 215 220 224 225 225 230 231 233 237 239 240 243 244 246 249 250 253 255 257 258 261 263 265 263 264 268 270 243 270 273 272 248
35 46 42 51 71 91 113 163 172 184 199 196 212 217 221 223 227 227 229 232 235 235 240 242 244 247 249 251 253 256 258 258 259 261 263 264 264 267 266 270 275 274 271 278 279
35 37 45 43 82 91 127 110 154 196 202 208 213 212 220 226 227 228 232 235 237 238 240 241 245 248 251 254 256 259 262 261 260 262 265 268 272 272 266 265 273 277 274 276 278
38 36 37 55 50 55 77 164 185 189 173 201 218 224 219 225 228 232 232 234 236 240 243 244 245 248 249 243 254 255 251 253 250 256 266 266 269 270 275 274 262 241 242 264 262
47 48 38 35 41 60 60 53 104 173 202 220 220 227 230 232 235 237 241 243 242 244 245 247 248 250 251 252 251 257 260 262 263 265 267 271 247 230 221 219 214 191 218 243 268
31 32 44 36 39 40 62 63 63 68 69 166 210 211 224 232 237 238 239 238 241 246 246 248 251 254 256 257 259 260 263 265 259 221 206 194 180 177 174 173 173 208 229 187 194
29 31 44 37 35 36 43 59 63 70 86 73 74 75 85 92 235 234 240 236 242 236 235 228 221 197 195 191 176 163 163 162 160 153 145 156 157 185 192 163 171 181 189 226 127
29 33 31 27 39 50 39 37 58 58 62 69 68 81 82 84 86 90 91 95 99 104 109 118 122 126 130 133 136 144 149 142 149 153 150 170 168 172 161 149 155 134 134 119 109
23 21 34 36 33 40 68 58 43 49 62 65 69 71 72 81 84 89 92 96 99 104 110 118 124 121 128 120 124 133 131 139 147 150 137 133 137 126 126 115 112 116 155 152 66
21 23 16 30 30 30 57 73 74 48 49 56 62 67 69 81 77 79 81 91 94 96 100 105 110 109 109 114 120 126 134 122 126 133 131 136 126 130 104 105 100 94 132 179 116
7 14 19 22 29 29 33 29 63 68 42 43 48 54 65 70 69 74 87 92 95 93 93 99 99 97 92 110 110 118 127 131 124 120 125 110 107 117 115 115 113 106 80 76 93
9 3 11 22 19 20 37 24 29 65 42 62 52 52 57 62 61 75 72 92 90 93 88 85 87 92 106 98 110 117 111 113 120 107 132 144 133 130 126 124 139 150 111 178 207
356 3 2 4 10 18 18 27 34 29 32 39 80 48 50 51 52 54 70 72 77 80 88 89 89 101 100 99 101 139 140 110 128 120 127 176 208 198 151 159 172 161 140 163 132